www.pogodaiklimat.ru

Погода и климат >> Архив погоды >> Эфиопия >> Аддис-Абеба


АРХИВ ПОГОДЫ в Аддис-Абебе

Время (UTC), дата Ветер
(напр.,м/с)
 
Видим.   Явления Облачность Т
(С)
Тd
(С)
f
(%)
Тe
(С)
Тes
(С)
Комфортность P
(гПа)
Po
(гПа)
Тmin
(С)
Tmax
(С)
R
(мм)
R24
(мм)
S
(см)
21 15.09 СЗ 2 30 км 8/6 750 м
[Sc Ac trans]
+14.1 +12.5 90 +14 +14 по сезону 1015.8 775.1
00 16.09 З 1 30 км 6/6 750 м
[Sc]
+13.8 +12.5 92 +14 +14 тепло 1014.5 773.9
03 16.09 С 2 30 км 9/8 750 м
[Sc As op]
+13.9 +12.0 88 +13 +13 по сезону 1015.2 774.3
06 16.09 З 3 8000 м дождь 10/9 750 м
[Sc As op]
+12.8 +11.5 92 +11 +11 прохладно 1018.1 775.8 +12.6 9
09 16.09 Ю 3 30 км 6/6 750 м
[Cu Sc]
+19.0 +14.0 73 +20 +28 тепло 1010.6 774.6
12 16.09 ЮВ 4 30 км 9/8 700 м
[Cu Sc As op]
+20.2 +14.6 70 +23 +24 комфорт 1007.0 772.4
18 16.09 СВ 2 30 км 8/8 750 м
[Sc]
+16.4 +13.7 84 +17 +17 тепло 1012.9 774.4 +22.5
00 17.09 С 2 30 км 9/5 750 м
[Sc As op]
+14.4 +13.5 94 +14 +14 тепло 1012.7 773.2
03 17.09 штиль 0 10 км гроза, ливневой дождь 10/9 700 м
[Cb cap As op]
+12.6 +12.1 97 +12 +12 по сезону 1016.6 774.5
06 17.09 В 2 30 км {гроза} 9/8 450 м
[Sc Ac As]
+15.4 +12.9 85 +15 +16 по сезону 1015.7 775.8 +12.5 14
09 17.09 Ю 4 30 км 9/8 750 м
[Cu Sc Ac trans]
+17.2 +14.3 83 +17 +19 по сезону 1013.5 774.8
12 17.09 Ю 4 30 км 9/8 720 м
[Cu Sc Ac trans]
+19.0 +12.9 68 +20 +21 тепло 1007.9 772.5
15 17.09 Ю 3 20 км осадки на расстоянии 8/6 720 м
[Cb cap Ac trans]
+18.2 +13.3 73 +19 +19 тепло 1008.8 772.7
18 17.09 Ю 3 30 км 9/8 750 м
[Sc Ac trans]
+15.6 +13.4 87 +15 +15 по сезону 1013.8 774.3 +20.8
21 17.09 ЮВ 3 30 км зарница {гроза, дождь} 9/8 700 м
[Cb cap As op]
+14.0 +12.0 88 +13 +13 по сезону 1015.1 774.6
00 18.09 В 3 20 км слаб. дождь 9/8 700 м
[Sc Ac As]
+14.0 +12.7 92 +13 +13 по сезону 1016.1 774.5
03 18.09 С 2 20 км слаб. дождь 10/8 720 м
[Sc Ac As]
+13.1 +12.7 97 +12 +12 по сезону 1016.7 775.2
06 18.09 СЗ 33 30 км {гроза, дождь} 9/8 300 м
[St As op]
+14.9 +12.8 87 +10 +10 холодно 1016.2 776.2 +13.0 18
09 18.09 Ю 3 30 км 3/3 750 м
[Cu hum]
+19.6 +13.4 67 +21 +34 комфорт 1010.8 775.1
12 18.09 СЗ 4 30 км {гроза} 9/6 700 м
[Cb cap Ac trans]
+16.6 +13.6 82 +16 +18 прохладно 1011.5 773.6
15 18.09 СЗ 2 30 км {гроза} 9/6 700 м
[Cb cap Ac trans]
+14.6 +12.8 89 +14 +14 прохладно 1014.7 774.4
18 18.09 СВ 7 30 км {гроза} 9/8 750 м
[Sc Ac trans]
+15.0 +10.8 76 +13 +13 по сезону 1016.2 775.8 +20.7
21 18.09 ЮВ 2 30 км {дождь} 6/5 750 м
[Sc Ac trans]
+13.7 +12.3 91 +13 +13 по сезону 1016.9 775.7
00 19.09 С 2 30 км 5/5 750 м
[Sc]
+12.2 +11.0 92 +11 +11 по сезону 1016.4 774.0
03 19.09 СЗ 2 30 км 5/5 750 м
[Sc]
+11.7 +10.6 93 +10 +10 прохладно 1017.5 774.7
06 19.09 В 2 9000 м слаб. морось 10/9 600 м
[Sc As op]
+13.6 +11.7 88 +13 +13 прохладно 1018.9 777.0 +11.5 7
15 19.09 Ю 8 30 км 8/8 700 м
[Cu Sc]
+20.2 +12.0 59 +21 +21 комфорт 1008.3 773.5
18 19.09 СВ 6 30 км 6/6 750 м
[Sc]
+15.9 +13.5 86 +15 +15 по сезону 1013.9 774.9 +22.5
21 19.09 В 2 30 км 6/6 750 м
[Sc]
+15.1 +11.5 79 +15 +15 тепло 1014.2 774.6
00 20.09 С 2 30 км 9/6 750 м
[Sc Ac trans]
+12.5 +8.2 75 +12 +12 по сезону 1015.3 773.3
03 20.09 СЗ 2 30 км ясно +11.3 +8.2 81 +10 +10 прохладно 1016.9 774.0
09 20.09 Ю 4 30 км 9/9 700 м
[Cu Sc]
+18.6 +13.9 74 +19 +21 тепло 1010.3 774.2
12 20.09 ЮЗ 2 30 км {гроза} 6/6 750 м
[Cu med, cong]
+20.7 +13.7 64 +24 +29 комфорт 1006.6 772.5
15 20.09 Ю 2 30 км 5/5 750 м
[Cu med, cong]
+17.8 +13.4 75 +18 +18 тепло 1008.8 772.7
18 20.09 СВ 3 30 км 9/8 750 м
[Sc Ac trans]
+16.6 +13.8 84 +16 +16 тепло 1012.8 774.4 +22.5
21 20.09 ЮВ 3 30 км 10/8 800 м
[Sc Ac trans]
+15.8 +13.2 85 +15 +15 тепло 1012.0 773.6
00 21.09 ЮВ 2 30 км 9/6 750 м
[Sc Ac trans]
+14.6 +12.7 88 +14 +14 тепло 1012.7 772.9
06 21.09 Ю 2 4000 м дымка 10/8 700 м
[Sc As op]
+14.8 +13.9 94 +14 +15 по сезону 1014.9 775.2 +14.0 5
09 21.09 Ю 5 30 км 9/8 700 м
[Cu Sc Ac trans]
+17.5 +14.1 80 +17 +19 по сезону 1011.9 774.3
12 21.09 С 1 20 км осадки на расстоянии 9/8 720 м
[Cb cap Ac trans]
+17.5 +12.2 71 +19 +21 по сезону 1009.3 772.7
15 21.09 ЮВ 1 30 км {дождь} 9/6 720 м
[Cb cap Ac trans]
+17.6 +12.2 71 +19 +19 тепло 1009.3 772.6
21 21.09 З 2 30 км 9/9 720 м
[Cb cap]
+15.2 +12.7 85 +15 +15 тепло 1014.3 774.5
03 22.09 З 2 30 км 9/8 720 м
[Sc Ac trans]
+13.8 +12.1 89 +13 +13 по сезону 1015.1 774.7
06 22.09 З 4 8000 м слаб. дождь 10/8 750 м
[Sc As op]
+13.7 +11.9 89 +12 +12 прохладно 1018.2 776.4 +13.2 9
09 22.09 ЮЗ 4 30 км {дождь} 9/6 450 м
[Sc Ac As]
+15.7 +13.7 88 +15 +17 прохладно 1015.1 775.7
12 22.09 ЮЗ 8 20 км осадки на расстоянии 10/9 700 м
[Cb cap As op]
+17.0 +11.0 68 +16 +16 прохладно 1007.7 773.5
15 22.09 З 6 30 км {дождь} 10/8 600 м
[Cb cap As op]
+14.1 +12.7 91 +12 +12 холодно 1014.5 773.7

 

Местоположение метеостанции Аддис-Абеба (Эфиопия): широта 9.03 долгота 38.75 высота над уровнем моря 2354 м.

В архиве по умолчанию представлена погода в Аддис-Абебе за последнюю неделю. Архивные данные за месяц целиком и за предыдущие месяцы, начиная с января 2011 года, Вы можете получить, выбрав интересующий диапазон дат из раскрывающегося списка и нажав кнопку "Ввод!".


*Определитесь, кто Вы:
робот инопланетянин человек

Внимание! Время в таблицах - всемирное. Для получения местного времени необходимо прибавить поправку, которая равна 3 ч.

Смотрите также архив погоды в соседних городах и на ближайших метеорологических станциях:

Погода Harar Meda аэропорту (Эфиопия) (45 км)
Погода в Метехаре (Эфиопия) (128 км)
Погода в Дэбрэ-Маркосе (Эфиопия) (187 км)
Погода в Ауаса (Эфиопия) (219 км)
Погода в Робе (Эфиопия) (252 км)
Погода в Нэкэмте (Эфиопия) (253 км)
Погода в Комбольча (Эфиопия) (256 км)
Погода в Джимма (Эфиопия) (260 км)
Погода в Бахар Дар (Эфиопия) (321 км)
Погода в Дыре-Дауа (Эфиопия) (346 км)

Пояснения к столбцам:

Ветер - указаны скорость ветра в м/с - средняя за 10 мин, порывы в срок и между сроками (в фигурных скобках) и направление, откуда дует ветер: С - северный, СВ - северо-восточный, В - восточный, ЮВ - юго-восточный, Ю - южный, ЮЗ - юго-западный, З - западный, СЗ - северо-западный.
Видимость - горизонтальная дальность видимости в метрах или километрах. При видимости от 1 до 10 км при отсутствии осадков обычно наблюдается дымка, при ухудшении видимости до 1 км и менее - туман. В сухую погоду видимость может ухудшаться дымом, пылью или мглою.
Явления - указаны атмосферные явления, наблюдавшиеся в срок или в последний час перед сроком; фигурными скобками обозначены явления, наблюдавшиеся между сроками (за 1-3 часа до срока); квадратными скобками обозначены град или гололедные отложения с указанием их диаметра в мм.
Облачность - указаны через наклонную черту общая и нижняя облачность в баллах и высота нижней границы облаков в метрах; квадратными скобками обозначены формы облаков: Ci - перистые, Cs - перисто-слоистые, Cc - перисто-кучевые, Ac - высококучевые, As - высокослоистые, Sc - слоисто-кучевые, Ns - слоисто-дождевые, Cu - кучевые, Cb - кучево-дождевые. Подробнее классификацию облаков см. в Атласе облаков (PDF).
T - Температура воздуха - температура, измеренная на высоте 2 м над землей.
Td - Температура точки росы - температура, при понижении до которой содержащийся в воздухе водяной пар достигнет насыщения.
f - Относительная влажность воздуха - влажноcть воздуха, измеренная на высоте 2 м над землей.
Te - Эффективная температура - температура, которую ощущает одетый по сезону человек в тени. Характеристика душности погоды. При расчете учитывается влияние влажности воздуха и скорости ветра на теплоощущения человека.
Tes - Эффективная температура на солнце - температура, которую ощущает человек, с поправкой на солнечный нагрев. Характеристика знойности погоды. Зависит от высоты солнца над горизонтом, облачности и скорости ветра. Ночью, в пасмурную погоду, а также при ветре 12 м/с и более поправка равна нулю.
P - Атмосферное давление - приведенное к уровню моря атмосферное давление.
Po - Атмосферное давление - измеренное на уровне метеостанции атмосферное давление.
Tmin - Минимальная температура - минимум температуры воздуха на высоте 2 м над землей.
Tmax - Максимальная температура - максимум температуры воздуха на высоте 2 м над землей.
R - Количество осадков - Количество выпавших осадков за период времени, мм. При наведении курсора мыши на число - период времени, за который выпало указанное количество осадков.
R24 - Количество осадков - Количество выпавших осадков за 24 часа, мм.
S - Снежный покров - Высота снежного покрова, см. При наведении курсора мыши на число - состояние снежного покрова и степень покрытия местности в баллах.